Theta_e
294 293 287 287 287 288 288 286 285 288 289 285 287 286 288 289 289 289 289 290 291 292 295 296 297 296 299 300 301 300 300 299 298 296 296 295 294 295 295 296 296 296 295 295
293 287 289 291 291 289 288 284 284 287 288 284 285 283 287 288 287 288 288 288 290 291 293 295 295 296 298 299 300 300 300 300 299 299 298 297 296 296 297 297 296 296 296 296
288 287 291 290 287 287 284 282 281 281 285 284 282 281 284 287 288 289 288 289 290 290 291 292 295 295 297 298 298 299 299 299 299 299 298 296 296 295 294 295 295 296 296 296
286 290 289 287 284 285 283 284 284 281 279 276 281 274 281 285 285 286 287 286 287 288 291 293 293 294 296 298 299 299 300 300 299 298 295 294 293 292 294 293 295 295 294 293
283 284 284 282 283 285 280 284 281 279 276 275 276 272 280 285 283 283 284 286 287 288 289 291 292 294 295 296 296 297 298 298 297 297 296 294 294 294 294 293 293 293 293 293
283 288 285 284 286 284 285 280 279 278 277 269 269 271 276 280 282 282 285 285 287 287 288 290 291 293 293 294 294 294 295 295 296 296 295 294 293 293 292 292 292 292 293 293
282 281 285 286 281 284 281 276 272 271 270 272 265 271 277 281 283 284 284 285 286 287 287 288 288 289 290 290 291 292 293 293 294 294 294 293 293 292 292 292 291 292 291 291
277 275 280 284 280 279 278 276 272 265 268 271 267 266 276 282 285 285 286 285 286 286 287 287 288 288 288 289 289 290 290 290 291 291 291 292 292 291 291 292 291 291 291 292
276 276 281 281 283 280 278 273 276 267 262 265 273 276 279 281 280 283 283 283 283 285 286 287 287 287 287 287 288 288 288 289 290 290 290 290 291 290 290 291 291 291 291 292
280 273 277 280 281 279 278 278 271 271 263 263 270 268 273 273 272 276 280 278 280 283 285 286 286 286 286 286 286 286 287 287 288 289 289 290 289 290 290 290 290 290 291 291
280 276 274 278 273 273 272 272 273 273 274 267 265 272 279 273 277 274 273 277 274 275 282 283 285 286 286 286 285 284 285 285 285 286 287 287 288 288 289 288 289 289 290 290
281 280 271 273 279 281 278 277 278 270 266 269 270 269 275 273 275 274 272 275 276 275 277 278 283 285 285 284 283 283 284 284 285 286 286 286 287 287 286 287 288 289 289 289
281 275 268 273 274 276 273 278 278 274 276 268 267 270 272 271 270 271 271 272 274 275 274 275 278 280 282 283 282 282 283 283 284 285 284 284 284 285 285 285 287 288 288 288
286 280 272 271 271 272 271 276 278 274 268 272 272 271 270 270 271 270 271 272 272 272 273 273 274 275 279 278 279 280 281 282 282 282 282 282 283 283 284 284 285 286 287 287
282 270 276 275 276 273 273 271 275 274 275 273 275 276 272 274 275 275 273 272 271 273 273 275 275 275 275 276 279 277 278 280 280 280 279 281 282 283 284 283 283 284 285 286
282 271 273 269 277 276 272 276 275 276 277 276 277 275 275 269 269 269 271 272 273 273 275 275 274 272 274 275 277 277 277 278 277 278 279 279 279 280 280 281 282 282 283 284
277 273 269 264 271 270 267 270 275 275 273 276 272 275 269 268 270 271 272 272 272 271 271 270 271 273 274 276 277 274 277 277 275 276 278 277 278 279 279 279 280 279 280 282
275 270 269 264 263 259 272 276 275 274 277 277 276 269 269 269 269 271 272 270 270 270 273 274 275 274 276 277 276 275 276 276 275 276 276 276 277 279 279 280 279 278 279 279
281 273 266 262 260 269 274 275 273 272 272 278 278 273 274 273 275 275 278 277 276 275 277 277 277 277 275 276 277 272 273 272 274 275 276 275 276 279 280 279 280 278 277 278
276 278 271 265 259 258 272 274 276 276 269 277 279 277 276 275 269 273 278 280 279 280 279 279 279 279 279 279 279 277 277 276 277 277 276 276 277 279 279 279 280 280 278 278
263 270 270 271 267 268 278 276 277 266 271 275 276 276 276 273 275 277 279 279 279 279 278 279 279 278 279 280 279 279 279 278 280 280 277 276 277 278 279 279 279 280 278 277
267 266 267 269 266 265 276 275 272 276 276 277 276 276 276 276 277 278 278 278 278 277 278 279 278 278 279 280 279 279 279 281 280 278 278 278 278 278 279 277 277 279 280 278
266 272 270 272 271 277 277 277 278 278 277 277 277 277 277 276 276 277 277 277 278 278 279 279 279 279 280 279 279 278 280 280 279 276 276 276 276 277 278 276 276 278 280 278
271 274 270 270 274 278 278 278 278 279 278 279 279 278 277 276 276 276 276 277 277 277 278 277 276 277 277 277 278 278 279 278 275 274 275 276 275 275 275 275 276 279 280 278
272 271 268 270 275 275 277 277 278 279 279 279 279 278 278 277 276 277 277 276 276 277 276 275 276 277 276 276 277 277 278 274 276 275 275 275 274 274 273 274 275 279 281 280
274 274 272 271 277 276 276 277 278 277 276 278 277 275 276 275 276 277 276 277 276 276 277 277 277 276 276 276 276 277 277 275 275 274 274 273 272 272 272 272 275 282 284 283
Wind_Speed
2 2 3 7 5 3 6 4 5 5 3 4 4 6 5 7 9 8 8 8 8 8 6 7 7 5 3 4 7 9 8 7 5 3 3 2 3 3 3 4 5 4 3 2
3 4 5 2 3 3 4 3 2 3 1 3 6 8 8 5 6 6 7 8 8 7 8 7 7 6 3 4 4 8 8 8 5 4 3 1 2 2 2 2 4 5 4 3
3 4 1 2 6 4 5 3 4 2 7 2 6 3 7 5 7 8 8 8 8 8 7 7 8 8 4 4 3 4 6 7 4 3 3 4 4 2 0 2 3 4 5 5
5 1 2 4 5 6 2 5 3 3 5 3 4 3 6 8 7 8 7 8 7 8 8 7 7 8 8 7 7 6 5 6 5 5 4 4 3 2 2 2 3 3 5 5
1 4 5 5 3 3 2 2 3 2 1 4 2 4 5 11 7 8 6 7 8 8 8 7 7 7 7 7 7 6 6 5 4 4 3 3 3 3 2 1 3 4 5 6
3 1 4 3 4 3 3 1 2 2 1 2 3 4 5 5 4 7 6 7 7 7 8 8 8 7 7 6 6 6 5 4 3 1 2 3 4 4 3 3 3 4 4 4
2 2 3 3 3 3 0 1 2 4 3 5 4 2 9 5 6 10 8 7 7 8 8 8 8 8 8 8 8 6 7 5 3 1 3 3 4 5 6 6 4 5 4 3
3 5 2 5 3 1 1 2 5 5 1 3 3 7 6 7 7 9 8 7 8 8 7 8 8 7 7 7 8 8 8 7 8 7 7 5 5 3 4 5 4 4 4 4
2 2 3 4 2 2 2 1 2 6 1 4 5 4 1 6 5 8 7 7 6 7 7 7 7 6 6 7 7 7 7 7 7 7 6 7 6 6 5 7 6 4 5 4
2 2 1 1 1 3 1 1 4 2 1 5 5 5 7 6 6 4 5 2 4 5 6 6 5 5 5 6 6 8 6 6 5 6 5 5 6 7 7 6 7 7 6 6
2 4 1 1 4 6 1 1 1 2 3 5 3 8 2 7 11 10 5 1 2 4 4 4 5 5 5 5 6 6 6 6 6 6 6 6 6 6 6 6 6 7 6 7
2 1 3 6 3 5 3 2 5 5 6 2 2 11 5 2 9 9 6 5 3 3 5 4 5 5 5 5 6 6 6 6 6 6 6 7 7 7 6 6 7 7 7 7
2 1 3 5 1 2 2 4 1 2 1 6 4 9 3 4 3 4 6 5 5 4 5 5 5 5 6 6 6 6 6 6 6 6 6 7 7 7 7 7 7 8 9 8
1 2 6 5 6 2 3 4 6 5 2 4 12 8 5 7 8 6 6 6 6 6 6 5 5 5 6 6 6 6 7 6 6 7 7 7 8 7 7 8 10 10 9 10
1 4 2 5 6 5 7 6 9 13 13 9 19 16 6 14 14 10 7 4 5 7 6 7 7 7 6 6 7 6 6 8 5 6 7 8 8 7 9 9 10 11 11 11
3 3 1 5 4 4 9 12 14 18 20 18 23 28 6 2 6 3 7 8 8 8 9 8 8 6 7 7 8 7 7 8 5 7 9 8 7 7 8 9 10 10 11 12
5 5 3 7 3 6 11 11 21 9 5 15 15 14 5 3 6 8 9 8 9 7 7 6 7 7 7 9 8 7 8 7 6 7 8 8 8 8 9 9 9 10 11 11
5 3 2 5 3 3 9 4 3 10 10 11 6 4 5 6 5 4 7 5 6 6 8 8 7 7 8 8 8 7 7 8 8 8 8 7 7 10 10 10 10 10 9 11
5 4 2 3 4 10 11 4 6 6 7 12 16 5 5 4 2 8 10 8 9 9 9 8 9 8 7 8 8 6 7 6 6 7 8 7 6 11 10 10 12 10 9 10
3 2 3 2 3 8 1 2 2 2 9 3 6 8 7 7 2 4 4 6 8 8 7 7 7 6 7 8 7 5 8 8 10 8 7 6 7 11 13 12 13 12 9 11
2 4 15 10 7 10 7 7 3 6 5 3 4 6 5 5 6 4 7 7 6 5 7 7 7 7 8 8 7 9 9 11 11 9 7 6 8 11 13 14 12 14 10 10
8 7 5 5 5 12 5 4 7 3 3 5 4 4 4 6 7 7 8 7 8 8 9 9 7 8 8 8 9 12 12 13 9 7 9 10 11 11 12 13 14 17 11 11
4 7 6 12 6 2 8 3 4 3 5 5 5 5 4 6 7 8 9 8 8 9 11 7 9 12 11 9 10 13 15 12 9 8 12 10 12 13 13 13 16 14 11 9
5 5 4 5 9 17 8 7 5 5 6 5 4 4 5 8 8 8 8 7 7 8 9 8 8 11 11 10 11 12 13 10 7 10 12 12 13 15 13 11 12 13 9 8
5 4 6 10 14 12 12 7 7 6 6 5 6 7 8 8 9 8 8 7 8 8 6 6 9 11 12 10 11 10 12 6 10 11 11 12 12 13 13 13 13 13 11 11
8 11 9 12 10 8 5 3 4 4 6 7 7 5 6 6 10 9 9 9 8 8 10 11 12 12 15 13 12 13 9 7 9 12 11 10 11 11 11 12 13 22 24 20
Wind_Direction
28 67 73 50 15 332 330 6 9 92 32 329 295 335 16 8 35 43 58 70 51 41 47 34 357 319 164 151 138 141 151 162 146 140 145 165 195 194 177 183 159 179 187 202
38 79 46 341 321 334 8 38 21 97 26 345 334 309 69 58 70 60 58 64 62 39 27 27 13 22 49 148 161 147 156 153 158 164 198 139 139 116 134 162 166 184 191 201
85 47 331 334 21 7 47 19 29 351 329 206 305 237 120 105 83 68 44 53 55 60 41 31 31 25 48 82 82 128 143 147 148 144 88 51 34 35 20 214 202 201 193 199
62 61 35 52 85 2 127 356 36 358 14 239 26 256 161 153 127 83 52 48 47 50 58 48 49 37 34 29 46 58 92 115 133 132 119 178 194 215 219 153 176 177 186 219
77 19 38 55 39 326 116 15 42 65 312 33 325 80 216 147 128 88 72 61 53 55 53 56 65 73 58 45 42 47 75 91 99 131 175 204 235 247 257 258 192 206 212 210
99 205 30 50 85 36 116 339 38 221 139 15 235 113 233 186 124 110 87 71 51 57 53 49 46 55 52 53 56 51 62 78 96 136 218 260 279 290 295 280 257 238 226 214
175 78 112 335 182 186 179 28 337 353 2 233 300 353 241 127 92 121 111 84 65 48 48 43 42 36 38 30 26 35 28 23 35 346 306 293 283 286 282 278 265 262 249 234
180 310 36 344 32 108 51 127 149 217 227 285 351 240 265 115 104 102 90 68 54 44 37 44 42 47 45 34 32 32 31 18 5 359 343 326 307 279 263 268 273 261 245 234
90 261 121 41 1 44 197 50 13 95 44 49 218 277 129 142 165 110 84 65 38 26 39 44 37 35 46 39 27 34 33 24 15 1 344 327 316 309 285 272 269 265 260 250
36 315 327 134 243 39 130 132 58 335 72 278 279 270 236 187 222 135 105 55 11 8 24 22 22 16 26 47 22 6 11 16 355 347 343 333 322 318 305 293 277 271 267 250
90 106 314 43 208 179 123 237 340 84 155 191 273 260 308 215 179 151 188 227 273 311 329 339 338 339 4 26 10 339 341 357 344 337 323 322 314 310 303 292 276 260 261 252
87 25 253 213 70 22 359 300 190 136 261 225 159 271 324 187 134 140 192 224 260 257 277 290 315 324 337 339 343 325 329 344 327 318 314 310 310 313 318 309 303 289 261 248
82 301 336 317 16 49 246 204 194 52 7 215 152 260 344 26 85 180 182 237 259 274 302 307 321 316 311 310 306 303 314 314 311 306 305 299 297 299 298 295 294 295 292 268
14 276 186 209 210 173 238 216 198 169 180 222 227 284 226 235 206 214 233 243 256 262 260 273 292 271 275 276 286 301 303 292 296 299 295 288 287 282 281 288 294 292 287 283
111 222 296 235 227 187 217 198 202 211 220 199 265 230 232 206 201 200 204 230 262 261 256 246 251 262 271 288 291 289 285 290 285 279 278 279 276 270 276 281 286 288 286 283
165 264 83 280 246 264 265 224 220 227 233 248 261 273 211 152 95 149 215 222 230 233 232 234 244 254 265 264 265 265 265 269 259 267 275 279 274 267 264 273 279 282 284 284
162 159 139 262 320 318 289 213 213 209 192 218 234 245 163 168 183 201 223 219 237 242 246 262 257 253 253 257 251 245 250 253 254 259 266 268 274 274 272 272 269 274 282 284
175 117 126 264 17 269 249 226 224 230 248 221 265 200 175 175 217 224 236 200 254 242 262 268 266 265 261 259 261 249 257 259 257 258 256 257 270 277 274 271 265 270 275 275
145 168 247 188 215 291 298 149 169 183 281 224 228 142 174 186 179 268 244 195 227 237 242 241 243 242 250 258 263 248 268 252 257 262 263 264 272 288 283 279 284 268 270 275
15 324 155 110 209 237 237 180 56 113 277 344 131 142 167 157 196 226 123 192 231 237 235 259 267 269 274 274 278 281 278 277 278 270 263 262 279 288 285 286 291 281 257 268
120 231 225 226 241 278 241 151 169 97 250 107 98 134 156 196 212 268 310 291 278 264 266 271 276 268 268 280 278 273 274 265 267 272 268 273 284 290 286 285 290 288 266 265
169 171 193 200 232 265 119 67 170 183 121 137 163 187 237 257 268 272 276 270 272 266 259 259 264 265 267 266 276 274 270 275 267 258 270 276 284 286 284 281 288 280 258 263
273 190 198 195 213 277 214 168 225 172 177 213 206 249 280 286 284 277 272 269 267 271 273 255 259 266 265 264 267 273 271 278 273 264 270 276 282 285 278 279 282 274 256 252
256 185 226 39 246 247 231 259 246 231 226 239 263 267 263 264 265 270 268 271 271 267 261 253 258 265 268 261 266 264 272 267 257 265 274 284 284 287 278 275 275 269 252 247
208 107 218 254 274 291 279 239 234 245 236 237 233 221 244 261 272 266 277 268 266 263 258 250 259 270 265 264 270 267 271 250 265 269 274 282 284 281 282 273 271 265 246 237
197 220 226 255 259 243 259 183 173 192 222 230 233 252 254 243 270 279 276 271 267 268 273 276 274 277 278 278 276 272 260 240 256 271 278 281 284 281 280 278 284 273 256 244